Location: Launois
(49.6535°N, 4.5395°E)
Time: 05:27:37
(UTC+00:00)

FENGYUN 3A - Pass Details

Date: 23 May 2024
Orbit: 821 x 835 km, 98.6° (Epoch: 19 June)

Event Time Altitude Azimuth Distance (km) Brightness Sun altitude
Rises 02:14:26 0° 15° (NNE) 3,373 8.2 -11.7°
Reaches altitude 10° 02:16:48 10° 16° (NNE) 2,434 7.3 -11.4°
Maximum altitude 02:22:12 85° 105° (ESE) 832 3.7 -10.9°
Enters shadow 02:27:31 10° 195° (SSW) 2,396 5.5 -10.4°
